TimeEDT,TemperatureF,Dew PointF,Humidity,Sea Level PressureIn,VisibilityMPH,Wind Direction,Wind SpeedMPH,Gust SpeedMPH,PrecipitationIn,Events,Conditions,WindDirDegrees,DateUTC
12:53 AM,72.0,70.0,93,29.88,7.0,SSW,4.6,-,N/A,,Partly Cloudy,200,2012-09-30 04:53:00
1:53 AM,71.1,70.0,96,29.88,6.0,SSW,3.5,-,N/A,,Partly Cloudy,200,2012-09-30 05:53:00
2:53 AM,71.1,69.1,93,29.87,6.0,SSW,3.5,-,N/A,,Mostly Cloudy,200,2012-09-30 06:53:00
3:53 AM,72.0,70.0,93,29.87,5.0,Calm,Calm,-,N/A,,Partly Cloudy,0,2012-09-30 07:53:00
4:53 AM,72.0,70.0,93,29.86,4.0,Calm,Calm,-,N/A,,Overcast,0,2012-09-30 08:53:00
6:48 AM,71.6,69.8,94,29.86,2.5,Calm,Calm,-,N/A,,Clear,0,2012-09-30 10:48:00
6:53 AM,71.1,69.1,93,29.86,2.5,Calm,Calm,-,N/A,,Clear,0,2012-09-30 10:53:00
7:15 AM,71.6,69.8,94,29.86,4.0,Calm,Calm,-,N/A,,Partly Cloudy,0,2012-09-30 11:15:00
7:53 AM,71.1,69.1,93,29.87,2.5,Calm,Calm,-,N/A,,Partly Cloudy,0,2012-09-30 11:53:00
8:29 AM,71.6,69.8,94,29.88,3.0,Calm,Calm,-,N/A,,Partly Cloudy,0,2012-09-30 12:29:00
8:53 AM,73.0,71.1,93,29.89,4.0,Calm,Calm,-,N/A,,Mostly Cloudy,0,2012-09-30 12:53:00
10:26 AM,75.2,71.6,89,29.89,9.0,Calm,Calm,-,N/A,,Partly Cloudy,0,2012-09-30 14:26:00
11:53 AM,79.0,71.1,77,29.87,10.0,Calm,Calm,-,N/A,,Scattered Clouds,0,2012-09-30 15:53:00
12:53 PM,81.0,68.0,65,29.86,10.0,Calm,Calm,-,N/A,,Mostly Cloudy,0,2012-09-30 16:53:00
1:53 PM,82.0,68.0,62,29.85,10.0,Calm,Calm,-,N/A,,Mostly Cloudy,0,2012-09-30 17:53:00
2:53 PM,82.9,69.1,63,29.82,10.0,Calm,Calm,-,N/A,,Overcast,0,2012-09-30 18:53:00
3:53 PM,84.0,69.1,61,29.80,10.0,Calm,Calm,-,N/A,,Partly Cloudy,0,2012-09-30 19:53:00
4:53 PM,82.9,68.0,60,29.79,10.0,East,5.8,-,N/A,,Scattered Clouds,90,2012-09-30 20:53:00
5:53 PM,81.0,70.0,69,29.79,10.0,East,4.6,-,N/A,,Scattered Clouds,90,2012-09-30 21:53:00
6:53 PM,77.0,69.1,76,29.80,10.0,SE,4.6,-,N/A,,Clear,130,2012-09-30 22:53:00
7:06 PM,75.2,69.8,83,29.82,10.0,South,9.2,-,N/A,Thunderstorm,Partly Cloudy,190,2012-09-30 23:06:00
7:17 PM,73.4,69.8,88,29.82,6.0,SW,6.9,17.3,0.02,Rain,Rain,230,2012-09-30 23:17:00
7:22 PM,73.4,69.8,88,29.82,2.5,WSW,5.8,-,0.06,Rain,Heavy Rain,240,2012-09-30 23:22:00
7:31 PM,71.6,69.8,94,29.81,1.8,Calm,Calm,-,0.11,Rain,Heavy Rain,0,2012-09-30 23:31:00
7:35 PM,71.6,69.8,94,29.81,3.0,Calm,Calm,-,0.12,Rain,Rain,0,2012-09-30 23:35:00
7:53 PM,72.0,70.0,93,29.80,8.0,ENE,3.5,-,0.14,Rain,Light Rain,70,2012-09-30 23:53:00
8:53 PM,73.0,71.1,93,29.80,9.0,Calm,Calm,-,0.00,,Clear,0,2012-10-01 00:53:00
9:53 PM,73.0,71.1,93,29.82,8.0,ESE,3.5,-,N/A,,Mostly Cloudy,120,2012-10-01 01:53:00
10:53 PM,72.0,70.0,93,29.82,8.0,Calm,Calm,-,N/A,,Clear,0,2012-10-01 02:53:00
11:53 PM,72.0,70.0,93,29.82,8.0,Calm,Calm,-,N/A,,Clear,0,2012-10-01 03:53:00